Tracking 19846 objects as of 18-Sep-2019
HD Live streaming from Space Station
objects crossing your sky now

TIROS 2 DEB *

Track TIROS 2 DEB * now!
10-day predictions


NORAD ID: 5922
Int'l Code: 1960-016E
Perigee: 977.4 km
Apogee: 1,038.0 km
Inclination: 47.0 °
Period: 105.1 minutes
Semi major axis: 7378 km
RCS: 0.0192 m2 (small)
Launch date: November 23, 1960
Source: United States (US)
Launch site: AIR FORCE EASTERN TEST RANGE (AFETR)

Note: This is SATELLITE DEBRIS
aabbcc
Your satellite tracking list
Your tracking list is empty




NASA's NSSDC Master Catalog

Two Line Element Set (TLE):
1  5922U 60016E   19258.07182848 -.00000090 +00000-0 +44179-4 0  9993
2  5922 047.0309 140.2119 0041046 323.9360 183.9921 13.69732645413212
Source of the keplerian elements: AFSPC